SCP
0 0 0 0 0 0 0 0 0 0 0 0 0 0 0 0 0 0 0 0 0 0
0 0 0 0 0 0 0 0 0 0 0 0 0 0 0 0 0 0 0 0 0 0
0 0 0 0 0 0 0 0 0 0 0 0 0 0 0 0 0 0 0 0 0 0
0 0 0 0 0 0 0 0 0 0 0 0 0 0 0 0 0 0 0 0 0 0
0 0 0 0 0 0 0 0 0 0 0 0 0 0 0 0 0 0 0 0 0 0
0 0 0 0 0 0 0 0 0 0 0 0 0 0 0 0 0 0 0 0 0 0
0 0 0 0 0 0 0 0 0 0 0 0 0 0 0 0 0 0 0 0 0 0
0 0 0 0 0 0 0 0 0 0 0 0 0 0 0 0 0 0 0 0 0 0
0 0 0 0 0 0 0 0 0 0 0 0 0 0 0 0 0 0 0 0 0 0
0 0 0 0 0 0 0 0 0 0 0 0 0 0 0 0 0 0 0 0 0 0
0 0 0 0 0 0 0 0 0 0 0 0 0 0 0 0 0 0 0 0 0 0
0 0 0 0 0 0 0 0 0 0 0 0 0 0 0 0 0 0 0 0 0 0
0 0 0 0 0 0 0 0 0 0 0 0 0 0 0 0 0 0 0 0 0 0
0 0 0 0 0 0 0 0 0 0 0 0 0 0 0 0 0 0 0 0 0 0
Wind_Speed_500mb
82 81 77 73 68 59 53 44 41 37 34 31 32 32 31 30 27 29 31 34 39 45
84 79 76 74 70 62 55 52 50 43 38 36 35 34 33 32 30 31 32 35 40 45
77 75 73 71 71 68 61 59 56 49 43 40 38 36 35 34 32 32 33 36 41 46
75 71 70 70 72 70 65 64 59 53 48 43 41 39 38 35 34 33 34 37 42 46
68 68 69 72 73 71 71 66 62 58 53 47 44 42 39 36 35 34 34 37 42 46
64 67 71 71 72 73 73 69 66 63 57 51 46 44 41 39 36 34 34 37 41 46
62 64 66 68 71 74 73 71 69 65 58 53 49 46 43 40 36 34 33 37 40 44
58 60 61 64 69 71 74 73 69 65 61 56 54 49 45 41 37 34 32 35 39 43
61 62 63 65 67 70 74 74 71 69 65 60 56 49 46 42 39 33 32 34 38 42
72 74 73 71 68 69 76 76 74 73 68 62 56 52 48 43 40 35 33 34 38 41
65 83 87 80 73 71 76 78 77 76 69 63 57 53 49 46 42 38 33 34 37 39
51 65 85 90 81 79 80 81 80 77 68 66 59 55 52 48 45 38 33 34 36 38
56 59 70 83 90 87 84 82 79 75 70 66 58 55 53 50 46 41 33 34 32 37
52 58 65 67 82 86 85 82 80 75 70 66 60 58 56 51 47 39 36 32 30 34
Wind_Direction_500mb
222 224 225 226 227 232 236 240 245 254 260 263 263 266 268 268 273 285 298 311 316 319
223 225 225 227 229 234 237 240 245 252 258 260 260 261 264 264 269 282 296 307 313 319
225 226 227 228 231 234 238 241 244 250 255 257 257 258 260 260 268 280 294 304 313 318
226 227 229 230 232 235 239 242 245 249 252 255 256 255 256 257 265 278 291 303 312 318
226 227 229 231 232 235 238 242 245 246 249 252 253 253 253 255 263 274 288 302 312 319
226 228 231 233 234 236 238 240 242 243 247 251 251 250 251 252 259 273 288 302 312 319
227 230 234 237 237 237 238 241 242 244 247 248 248 248 248 249 257 269 286 301 313 319
233 235 237 239 237 237 239 241 242 242 243 244 244 246 246 248 255 266 283 299 312 319
245 244 244 243 240 238 240 240 239 239 241 242 243 244 243 245 252 263 279 295 309 317
258 251 247 248 245 242 241 238 237 238 239 241 240 240 240 242 249 259 272 290 305 318
260 254 249 246 247 245 242 238 236 237 238 237 236 237 236 239 246 256 269 286 303 319
266 263 253 248 248 247 242 236 235 236 235 234 232 234 233 235 244 253 265 283 302 318
261 256 256 252 248 247 242 238 236 234 233 232 231 231 231 234 241 249 261 277 299 314
278 265 259 254 250 247 242 236 234 233 231 229 228 228 229 232 239 247 256 271 292 309
Wind_Speed_850mb
82 81 77 73 68 59 53 44 41 37 34 31 32 32 31 30 27 29 31 34 39 45
84 79 76 74 70 62 55 52 50 43 38 36 35 34 33 32 30 31 32 35 40 45
77 75 73 71 71 68 61 59 56 49 43 40 38 36 35 34 32 32 33 36 41 46
75 71 70 70 72 70 65 64 59 53 48 43 41 39 38 35 34 33 34 37 42 46
68 68 69 72 73 71 71 66 62 58 53 47 44 42 39 36 35 34 34 37 42 46
64 67 71 71 72 73 73 69 66 63 57 51 46 44 41 39 36 34 34 37 41 46
62 64 66 68 71 74 73 71 69 65 58 53 49 46 43 40 36 34 33 37 40 44
58 60 61 64 69 71 74 73 69 65 61 56 54 49 45 41 37 34 32 35 39 43
61 62 63 65 67 70 74 74 71 69 65 60 56 49 46 42 39 33 32 34 38 42
72 74 73 71 68 69 76 76 74 73 68 62 56 52 48 43 40 35 33 34 38 41
65 83 87 80 73 71 76 78 77 76 69 63 57 53 49 46 42 38 33 34 37 39
51 65 85 90 81 79 80 81 80 77 68 66 59 55 52 48 45 38 33 34 36 38
56 59 70 83 90 87 84 82 79 75 70 66 58 55 53 50 46 41 33 34 32 37
52 58 65 67 82 86 85 82 80 75 70 66 60 58 56 51 47 39 36 32 30 34
Wind_Direction_850mb
222 224 225 226 227 232 236 240 245 254 260 263 263 266 268 268 273 285 298 311 316 319
223 225 225 227 229 234 237 240 245 252 258 260 260 261 264 264 269 282 296 307 313 319
225 226 227 228 231 234 238 241 244 250 255 257 257 258 260 260 268 280 294 304 313 318
226 227 229 230 232 235 239 242 245 249 252 255 256 255 256 257 265 278 291 303 312 318
226 227 229 231 232 235 238 242 245 246 249 252 253 253 253 255 263 274 288 302 312 319
226 228 231 233 234 236 238 240 242 243 247 251 251 250 251 252 259 273 288 302 312 319
227 230 234 237 237 237 238 241 242 244 247 248 248 248 248 249 257 269 286 301 313 319
233 235 237 239 237 237 239 241 242 242 243 244 244 246 246 248 255 266 283 299 312 319
245 244 244 243 240 238 240 240 239 239 241 242 243 244 243 245 252 263 279 295 309 317
258 251 247 248 245 242 241 238 237 238 239 241 240 240 240 242 249 259 272 290 305 318
260 254 249 246 247 245 242 238 236 237 238 237 236 237 236 239 246 256 269 286 303 319
266 263 253 248 248 247 242 236 235 236 235 234 232 234 233 235 244 253 265 283 302 318
261 256 256 252 248 247 242 238 236 234 233 232 231 231 231 234 241 249 261 277 299 314
278 265 259 254 250 247 242 236 234 233 231 229 228 228 229 232 239 247 256 271 292 309